Weather Roundup
Issued by NWS Corpus Christi, TX

Home | Current Version | Previous Version | Text Only | Print | Product List | Glossary On
Versions: 1 2 3 4 5 6 7 8 9 10 11 12 13 14 15 16 17 18 19 20 21 22 23 24 25 26 27 28 29 30 31 32 33 34 35 36 37 38 39 40 41 42 43 44 45 46 47 48 49 50
000
ASUS44 KCRP 050310
HRRCRP

SOUTH TEXAS REGIONAL WEATHER ROUNDUP
NATIONAL WEATHER SERVICE CORPUS CHRISTI TX
1000 PM CDT SAT JUL 04 2015


TXZ229>244-050400-
...CORPUS CHRISTI AREA OBSERVATIONS...

CITY           SKY/WX    TMP DP  RH WIND       PRES   REMARKS
CORPUS CHRISTI PTCLDY    79  72  79 SE9       29.96R
NAS CORPUS CHR PTCLDY    81  72  74 SE15      29.96R
ROCKPORT       PTCLDY    82  74  76 S8        29.97R
KINGSVILLE NAS CLEAR     79  76  90 SE8       29.95R
ALICE          CLEAR     79  74  84 SE8       29.95R
FALFURRIAS     CLEAR     80  68  67 E5        29.94R
$$

...VICTORIA AREA OBSERVATIONS...

CITY           SKY/WX    TMP DP  RH WIND       PRES   REMARKS
VICTORIA       CLEAR     80  77  90 S10       29.98R
BEEVILLE       FAIR      78  78 100 SE7       29.96R
PLEASANTON     CLEAR     81  73  76 SE10      29.95R
SAN ANTONIO    PTCLDY    82  73  74 SE12      29.97R
$$

...LAREDO AREA OBSERVATIONS...

CITY           SKY/WX    TMP DP  RH WIND       PRES   REMARKS
LAREDO         CLEAR     85  70  60 E14       29.93R
COTULLA        LGT RAIN  84  70  62 SE18      29.92R
DEL RIO        CLEAR     85  70  60 E10       29.88R
MCALLEN        CLEAR     84  71  65 SE14      29.94R
HEBBRONVILLE     N/A     80  66  63 E9        29.96R
$$

...OTHER TEXAS OBSERVATIONS...

CITY           SKY/WX    TMP DP  RH WIND       PRES   REMARKS
BROWNSVILLE    MOCLDY    80  73  79 SE9       29.95S
HOUSTON        PTCLDY    82  74  76 S5        29.99R
COL. STATION   CLEAR     81  73  76 S7        29.98R
AUSTIN         PTCLDY    80  73  79 S9        29.96R
WACO           MOCLDY    83  72  69 S14       29.95R
FORT WORTH     MOCLDY    86  70  58 SE8       29.93R HX  90
WICHITA FALLS  MOCLDY    79  69  71 SE8       29.90R
LUBBOCK        MOCLDY    81  62  52 S10       30.00R
EL PASO        TSTM      74  65  73 E13       30.02R
$$

...MARINE OBSERVATIONS...

STATION/POSITION TIME  SKY/WX   TEMP    WIND        PRES    VSBY  WAVE   SWELL
                                AIR SEA DIR/SP/G                  HT/PER HT/PER
                 (UTC)          (F)     (DEG/KT/KT) (MB)    (MI)  (FT/S) (FT/S)
PORT ARANSAS     0200            81 84  150/ 14/ 15 1014.9S
BUOY 90 E PORT A NOT AVBL
BUOY 45 SE BAFFI 0250            82 83  170/ 10/ 10 1014.4R         4/ 6   3/ 6
BUOY 200 E PT IS 0250            84 84  150/ 12/ 14 1016.2R         3/ 6   2/ 6
BUOY 15 E GALVES 0250            84 84  170/ 10/ 12 1015.3R         3/ 5   2/ 5
$$



USA.gov is the U.S. government's official web portal to all federal, state and local government web resources and services.